www.pogodaiklimat.ru

Погода и климат >> Архив погоды >> Россия >> Ненецкий АО >> Несь


ПОГОДА в Неси

  • Прогноз погоды в Неси
  • Монитор погоды в Неси

АРХИВ ПОГОДЫ в Неси

Время (UTC), дата Ветер
(напр.,м/с)
 
Видим.   Явления Облачность Т
(С)
Тd
(С)
f
(%)
Тe
(С)
Тes
(С)
Комфортность P
(гПа)
Po
(гПа)
Тmin
(С)
Tmax
(С)
R
(мм)
R24
(мм)
S
(см)
21 16.02 Ю 10-13
{14}
н/о н/о -4.3 -5.3 93 -14 -14 982.9 981.3
00 17.02 Ю 8-13
{14}
н/о н/о -3.5 -4.3 94 -12 -12 977.6 976.0
03 17.02 Ю 4
{13}
н/о н/о -2.7 -3.5 94 -9 -9 976.3 974.7 -7.2
06 17.02 З 2 н/о н/о -1.7 -2.4 95 -6 -6 974.9 973.3 -5.0
09 17.02 СЗ 2 н/о н/о -1.4 -2.2 94 -5 -5 976.3 974.7
12 17.02 С 9-14
{14}
н/о н/о -3.3 -4.0 95 -12 -12 978.9 977.3
15 17.02 С 12-19
{20}
н/о н/о -4.7 -5.5 94 -15 -15 985.6 984.0
18 17.02 С 12-18
{23}
н/о н/о -7.1 -8.2 92 -18 -18 992.4 990.7 -1.4
21 17.02 С 8-11
{20}
н/о н/о -10.3 -11.8 89 -20 -20 999.0 997.3
00 18.02 С 7
{12}
н/о н/о -12.3 -14.2 86 -22 -22 1002.0 1000.5
03 18.02 С 5
{11}
н/о н/о -14.0 -16.4 82 -23 -23 1004.5 1003.0 -14.0
06 18.02 СЗ 3 н/о н/о -12.9 -14.7 86 -19 -19 1006.3 1004.7 -14.0
09 18.02 С 1 н/о н/о -12.2 -14.8 81 -14 -14 1008.1 1006.5
12 18.02 З 2 н/о н/о -9.2 -13.8 69 -14 -14 1009.7 1008.0
15 18.02 З 2 н/о н/о -10.1 -12.1 85 -15 -15 1009.7 1008.0
18 18.02 З 5 н/о н/о -10.5 -12.3 87 -18 -18 1007.5 1005.9 -8.4
21 18.02 Ю 3 н/о н/о -13.7 -15.7 85 -20 -20 1005.3 1003.7
00 19.02 Ю 7 н/о н/о -10.9 -12.8 86 -20 -20 1001.2 999.7
03 19.02 Ю 8 н/о н/о -10.0 -11.7 87 -20 997.7 996.0 -14.0
06 19.02 Ю 7
{12}
н/о н/о -10.1 -12.1 85 -19 -19 993.7 992.0 -14.0
09 19.02 Ю 4 н/о н/о -10.1 -12.6 82 -17 -17 993.7 992.0
12 19.02 Ю 3 н/о н/о -8.6 -11.1 82 -14 -14 992.8 991.2
15 19.02 ЮЗ 2 н/о н/о -10.5 -12.1 88 -15 -15 995.0 993.3
03 20.02 В 4 н/о н/о -10.9 -12.6 87 -18 -18 993.9 992.3 -19.2
06 20.02 В 9-10
{11}
н/о н/о -10.7 -12.6 86 -21 -21 992.5 991.0 -19.2
09 20.02 В 11-14
{14}
н/о н/о -10.5 -12.2 87 -22 -22 991.1 989.5
12 20.02 СВ 13-16
{17}
н/о н/о -8.8 -10.2 90 -20 -20 990.0 988.5
15 20.02 СВ 15-18
{19}
н/о н/о -9.6 -10.9 90 -22 -22 991.0 989.3
18 20.02 СВ 14-18
{20}
н/о н/о -9.5 -10.8 90 -22 -22 992.4 990.7 -8.8
15 21.02 С 4 н/о н/о -18.6 -20.9 82 -27 -27 1013.6 1012.0
00 22.02 ЮЗ 1 н/о н/о -13.2 -15.1 86 -16 -16 1019.2 1017.6
03 22.02 З 2 н/о н/о -8.9 -10.3 90 -13 -13 1019.9 1018.3 -19.1
06 22.02 З 2 н/о н/о -10.7 -12.2 89 -15 -15 1021.4 1019.8 -19.1
09 22.02 ЮЗ 3 н/о н/о -10.1 -11.7 88 -16 -16 1022.3 1020.7
12 22.02 ЮЗ 3 н/о н/о -6.6 -7.9 90 -12 -12 1022.6 1021.0
15 22.02 ЮЗ 5 н/о н/о -6.0 -7.2 91 -13 -13 1023.0 1021.3
18 22.02 ЮЗ 4 н/о н/о -7.5 -9.4 86 -14 -14 1021.7 1020.0 -5.7
21 22.02 ЮЗ 6 н/о н/о -7.9 -10.7 80 -16 -16 1017.7 1016.0
00 23.02 ЮЗ 7-11
{11}
н/о н/о -7.2 -11.4 72 -16 -16 1013.7 1012.0
03 23.02 ЮЗ 7-12
{13}
н/о н/о -7.6 -10.1 82 -16 -16 1009.7 1008.0 -9.0
06 23.02 ЮЗ 7-12
{13}
н/о н/о -6.7 -8.8 85 -15 -15 1008.4 1006.7 -9.0
09 23.02 З 6
{12}
н/о н/о -4.9 -5.9 93 -13 -13 1006.2 1004.6
15 23.02 З 5 н/о н/о -2.9 -4.2 91 -10 1007.0 1005.3

 

Местоположение метеостанции Несь (Ненецкий АО, Россия): широта 66.60 долгота 44.68 высота над уровнем моря 13 м.

В архиве по умолчанию представлена погода в Неси за последнюю неделю. Архивные данные за месяц целиком и за предыдущие месяцы, начиная с января 2011 года, Вы можете получить, выбрав интересующий диапазон дат из раскрывающегося списка и нажав кнопку "Ввод!".


*Определитесь, кто Вы:
робот инопланетянин человек

Внимание! Время в таблицах - всемирное. Для получения местного времени необходимо прибавить поправку, которая равна 3 ч.

Смотрите также архив погоды в соседних городах и на ближайших метеорологических станциях:

Погода в Абрамовском маяке (Архангельская область, Россия) (68 км)
Погода в Мезене (Архангельская область, Россия) (84 км)
Погода на Моржовец Острове (Архангельская область, Россия) (98 км)
Погода в Мосеево (Архангельская область, Россия) (115 км)
Погода в Нижней Пеше (Ненецкий АО, Россия) (137 км)
Погода в Шойне (Ненецкий АО, Россия) (144 км)
Погода на Мысе Микулкин (Ненецкий АО, Россия) (158 км)
Погода на Сосновец Острове (Мурманская область, Россия) (178 км)
Погода в Кепино (Архангельская область, Россия) (187 км)
Погода в Лешуконском (Архангельская область, Россия) (196 км)

Пояснения к столбцам:

Ветер - указаны скорость ветра в м/с - средняя за 10 мин, порывы в срок и между сроками (в фигурных скобках) и направление, откуда дует ветер: С - северный, СВ - северо-восточный, В - восточный, ЮВ - юго-восточный, Ю - южный, ЮЗ - юго-западный, З - западный, СЗ - северо-западный.
Видимость - горизонтальная дальность видимости в метрах или километрах. При видимости от 1 до 10 км при отсутствии осадков обычно наблюдается дымка, при ухудшении видимости до 1 км и менее - туман. В сухую погоду видимость может ухудшаться дымом, пылью или мглою.
Явления - указаны атмосферные явления, наблюдавшиеся в срок или в последний час перед сроком; фигурными скобками обозначены явления, наблюдавшиеся между сроками (за 1-3 часа до срока); квадратными скобками обозначены град или гололедные отложения с указанием их диаметра в мм.
Облачность - указаны через наклонную черту общая и нижняя облачность в баллах и высота нижней границы облаков в метрах; квадратными скобками обозначены формы облаков: Ci - перистые, Cs - перисто-слоистые, Cc - перисто-кучевые, Ac - высококучевые, As - высокослоистые, Sc - слоисто-кучевые, Ns - слоисто-дождевые, Cu - кучевые, Cb - кучево-дождевые. Подробнее классификацию облаков см. в Атласе облаков (PDF).
T - Температура воздуха - температура, измеренная на высоте 2 м над землей.
Td - Температура точки росы - температура, при понижении до которой содержащийся в воздухе водяной пар достигнет насыщения.
f - Относительная влажность воздуха - влажноcть воздуха, измеренная на высоте 2 м над землей.
Te - Эффективная температура - температура, которую ощущает одетый по сезону человек в тени. Характеристика душности погоды. При расчете учитывается влияние влажности воздуха и скорости ветра на теплоощущения человека.
Tes - Эффективная температура на солнце - температура, которую ощущает человек, с поправкой на солнечный нагрев. Характеристика знойности погоды. Зависит от высоты солнца над горизонтом, облачности и скорости ветра. Ночью, в пасмурную погоду, а также при ветре 12 м/с и более поправка равна нулю.
P - Атмосферное давление - приведенное к уровню моря атмосферное давление.
Po - Атмосферное давление - измеренное на уровне метеостанции атмосферное давление.
Tmin - Минимальная температура - минимум температуры воздуха на высоте 2 м над землей.
Tmax - Максимальная температура - максимум температуры воздуха на высоте 2 м над землей.
R - Количество осадков - Количество выпавших осадков за период времени, мм. При наведении курсора мыши на число - период времени, за который выпало указанное количество осадков.
R24 - Количество осадков - Количество выпавших осадков за 24 часа, мм.
S - Снежный покров - Высота снежного покрова, см. При наведении курсора мыши на число - состояние снежного покрова и степень покрытия местности в баллах.